Location: Mason Neck State Park
(38.6428°N, 77.1981°W)
Time: 22:25:22
(UTC-04:00)

ISS - Visible Passes

Search period start: 01 August 2014 00:00
Search period end: 11 August 2014 00:00
Orbit: 411 x 419 km, 51.6° (Epoch: 01 August)

Date Brightness Start Highest point End Pass type
(mag) Time Alt. Az. Time Alt. Az. Time Alt. Az.
01 Aug 0.3 02:58:33 10° N 02:59:00 10° N 02:59:27 10° NNE visible
01 Aug -1.0 04:33:41 10° NNW 04:36:37 27° NNE 04:39:33 10° E visible
01 Aug -1.3 21:16:05 10° SSE 21:17:02 14° SSE 21:17:02 14° SSE visible
02 Aug -0.4 03:45:05 10° NNW 03:47:36 19° NNE 03:50:07 10° ENE visible
02 Aug -3.3 05:21:16 10° NW 05:24:36 66° SW 05:27:55 10° SE visible
02 Aug -3.4 22:02:20 10° SW 22:05:40 88° SE 22:07:59 19° NE visible
02 Aug 0.0 23:40:31 10° WNW 23:41:08 13° NW 23:41:08 13° NW visible
03 Aug 0.0 02:56:34 10° NNW 02:58:32 15° NNE 03:00:29 10° NE visible
03 Aug -2.9 04:32:24 10° NW 04:35:45 67° NE 04:39:06 10° ESE visible
03 Aug -3.0 21:13:40 10° SSW 21:16:51 45° SE 21:20:04 10° ENE visible
03 Aug -0.8 22:50:59 10° W 22:53:42 23° NNW 22:56:27 10° NNE visible
04 Aug -1.8 03:46:03 33° N 03:46:51 39° NNE 03:50:01 10° ESE visible
04 Aug -2.0 05:20:46 10° W 05:23:23 21° SW 05:26:00 10° S visible
04 Aug -1.5 22:01:38 10° W 22:04:42 34° NNW 22:07:48 10° NE visible
04 Aug 0.2 23:41:12 10° NNW 23:42:13 11° NNW 23:43:14 10° N visible
05 Aug -1.1 04:37:06 15° SSE 04:37:06 15° SSE 04:37:47 10° SSE visible
05 Aug -2.6 21:12:29 10° WSW 21:15:45 57° NW 21:19:03 10° NE visible
05 Aug 0.0 22:51:17 10° NW 22:53:03 14° NNW 22:54:49 10° NNE visible
06 Aug -0.3 22:01:35 10° WNW 22:03:55 18° NNW 22:06:17 10° NNE visible
07 Aug -0.8 21:12:03 10° W 21:14:51 24° NNW 21:17:40 10° NNE visible
08 Aug 0.0 22:02:07 10° NW 22:03:17 11° NNW 22:04:28 10° N visible
09 Aug -0.3 21:12:12 10° NW 21:14:06 14° NNW 21:15:59 10° NNE visible
10 Aug 0.3 23:39:00 10° NNW 23:39:09 10° N 23:39:09 10° N visible
